Location: Brabourne
(51.1333°N, 1.0000°E)
Time: 11:31:19
(UTC+00:00)

Cosmos 1825 Rocket - Pass Details

Date: 24 October 2021
Orbit: 603 x 631 km, 82.5° (Epoch: 26 November)

Event Time Altitude Azimuth Distance (km) Brightness Sun altitude
Rises 18:06:00 0° 357° (N) 2,879 7.0 -13.4°
Reaches altitude 10° 18:08:28 10° 8° (N) 1,967 6.0 -13.8°
Maximum altitude 18:12:17 29° 69° (ENE) 1,119 4.3 -14.4°
Enters shadow 18:13:46 24° 104° (ESE) 1,283 4.6 -14.6°
